DW9728 Weather Reports


Display with metric or nautical units.
time (UTC)temp
F
wind
direction
speed
MPH
gust
MPH
rain 1hr
in
rain 24hr
in
rain mn
in
humidity
%
barometer
mb
20260509023456 74 274 0.0 1.0 0.00 0.00 0.00 88 1009.3
20260509022556 74 274 0.0 2.0 0.00 0.00 0.00 88 1009.1
20260509021656 74 281 0.0 1.0 0.00 0.00 0.00 87 1009.0
20260509020757 74 281 1.0 2.0 0.00 0.00 0.00 87 1008.8
20260509015857 74 271 0.0 3.0 0.00 0.00 0.00 87 1008.6
20260509014957 75 274 0.0 1.0 0.00 0.00 0.00 87 1008.7
20260509014057 75 274 0.0 1.0 0.00 0.00 0.00 87 1008.7
20260509013157 75 0 0.0 0.0 0.00 0.00 0.00 86 1008.6
20260509012256 75 0 0.0 0.0 0.00 0.00 0.00 86 1008.5
20260509011356 75 275 0.0 1.0 0.00 0.00 0.00 85 1008.6
20260509010457 75 275 0.0 1.0 0.00 0.00 0.00 85 1008.5
20260509005557 76 270 1.0 3.0 0.00 0.00 0.00 85 1008.4
20260509004656 76 275 1.0 3.0 0.00 0.00 0.00 84 1008.4
20260509003757 76 277 1.0 3.0 0.00 0.00 0.00 84 1008.3
20260509001956 76 265 1.0 3.0 0.00 0.00 0.00 83 1008.3
20260509001056 76 280 1.0 3.0 0.00 0.00 0.00 83 1008.3
20260508235257 77 297 0.0 2.0 0.00 0.00 0.00 83 1008.3
20260508234357 77 259 1.0 2.0 0.00 0.00 0.00 83 1008.3
20260508233457 77 273 2.0 6.0 0.00 0.00 0.00 82 1008.3
20260508232557 77 289 1.0 6.0 0.00 0.00 0.00 82 1008.2
20260508231657 77 280 1.0 3.0 0.00 0.00 0.00 82 1008.3
20260508230756 77 266 1.0 3.0 0.00 0.00 0.00 83 1008.5
20260508225857 77 321 0.0 3.0 0.00 0.00 0.00 82 1008.5
20260508224957 77 257 1.0 3.0 0.00 0.00 0.00 82 1008.7
20260508223156 77 319 1.0 7.0 0.00 0.00 0.00 80 1008.7
20260508222257 77 280 2.0 4.0 0.00 0.00 0.00 81 1008.7
20260508221356 78 299 2.0 4.0 0.00 0.00 0.00 79 1008.8
20260508220456 78 327 1.0 5.0 0.00 0.00 0.00 78 1008.9
20260508215556 78 278 1.0 3.0 0.00 0.00 0.00 78 1008.8
20260508214657 78 331 1.0 3.0 0.00 0.00 0.00 79 1008.9
20260508213756 77 307 0.0 3.0 0.00 0.00 0.00 79 1008.9
20260508212856 77 280 1.0 3.0 0.00 0.00 0.00 79 1009.1
20260508211056 77 271 1.0 5.0 0.00 0.00 0.00 79 1009.3
20260508210156 77 300 1.0 4.0 0.00 0.00 0.00 78 1009.5
20260508205256 78 275 1.0 3.0 0.00 0.00 0.00 77 1009.4
20260508204356 78 295 1.0 5.0 0.00 0.00 0.00 77 1009.4
20260508203456 78 289 1.0 4.0 0.00 0.00 0.00 77 1009.6
20260508202556 77 271 1.0 3.0 0.00 0.00 0.00 78 1009.7
20260508201656 77 277 1.0 5.0 0.00 0.00 0.00 76 1010.0
20260508200756 77 294 1.0 4.0 0.00 0.00 0.00 76 1010.0
20260508195856 77 286 1.0 3.0 0.00 0.00 0.00 77 1010.1
20260508194956 77 288 1.0 4.0 0.00 0.00 0.00 76 1010.3
20260508194056 77 285 1.0 3.0 0.00 0.00 0.00 75 1010.2
20260508193156 77 282 1.0 5.0 0.00 0.00 0.00 76 1010.1
20260508192256 76 283 0.0 3.0 0.00 0.00 0.00 78 1010.3
20260508191357 74 272 1.0 2.0 0.00 0.00 0.00 78 1010.4
20260508190456 74 318 0.0 6.0 0.00 0.00 0.00 77 1010.8
20260508185556 73 5 0.0 2.0 0.00 0.00 0.00 79 1010.9
20260508184656 72 268 0.0 1.0 0.00 0.00 0.00 80 1010.9
20260508183756 72 324 0.0 2.0 0.00 0.00 0.00 80 1010.9
20260508182856 72 269 0.0 2.0 0.00 0.00 0.00 79 1011.2
20260508181956 72 267 0.0 2.0 0.00 0.00 0.00 79 1011.4
20260508181056 72 290 1.0 2.0 0.00 0.00 0.00 80 1011.5
20260508175256 72 306 0.0 2.0 0.00 0.00 0.00 79 1011.7
20260508174356 71 287 0.0 2.0 0.00 0.00 0.00 78 1011.7
20260508173456 71 270 0.0 2.0 0.00 0.00 0.00 80 1011.8
20260508172556 71 275 0.0 2.0 0.00 0.00 0.00 78 1012.0
20260508165856 69 286 0.0 1.0 0.00 0.00 0.00 80 1012.0
20260508164956 69 282 0.0 2.0 0.00 0.00 0.00 80 1012.0
20260508164056 69 181 0.0 2.0 0.00 0.00 0.00 81 1012.1
20260508163157 69 282 0.0 3.0 0.00 0.00 0.00 80 1012.2
20260508162256 68 279 1.0 3.0 0.00 0.00 0.00 80 1012.3
20260508161356 68 261 0.0 2.0 0.00 0.00 0.00 79 1012.5
20260508160456 68 121 0.0 2.0 0.00 0.00 0.00 81 1012.5
20260508155556 68 126 1.0 3.0 0.00 0.00 0.00 79 1012.8
20260508154656 68 133 1.0 4.0 0.00 0.00 0.00 79 1012.8
20260508152856 66 138 1.0 5.0 0.00 0.00 0.00 80 1012.9
20260508151956 65 127 0.0 3.0 0.00 0.00 0.00 81 1013.3
20260508151056 64 136 0.0 4.0 0.00 0.00 0.00 82 1013.5
20260508150156 64 89 0.0 2.0 0.00 0.00 0.00 83 1013.3
20260508145256 64 132 0.0 1.0 0.00 0.00 0.00 83 1013.4
20260508144356 63 126 0.0 2.0 0.00 0.00 0.00 83 1013.3
20260508143456 63 122 1.0 4.0 0.00 0.00 0.00 83 1013.4
20260508142556 63 141 0.0 5.0 0.00 0.00 0.00 83 1013.2
20260508141656 63 134 0.0 4.0 0.00 0.00 0.00 84 1013.4
20260508140756 63 170 0.0 2.0 0.00 0.00 0.00 84 1013.3
20260508135856 62 145 0.0 3.0 0.00 0.00 0.00 84 1013.2
20260508134956 62 144 0.0 2.0 0.00 0.00 0.00 84 1013.1
20260508134056 62 136 0.0 2.0 0.00 0.00 0.00 84 1013.3
20260508133156 62 125 0.0 2.0 0.00 0.00 0.00 85 1013.4
20260508132256 62 126 0.0 2.0 0.00 0.00 0.00 85 1013.4
20260508131356 62 130 0.0 2.0 0.00 0.00 0.00 85 1013.5
20260508124656 61 140 0.0 3.0 0.00 0.00 0.00 86 1013.5
20260508123756 61 151 1.0 4.0 0.00 0.00 0.00 86 1013.4
20260508122856 61 145 1.0 6.0 0.00 0.00 0.00 86 1013.1
20260508121957 61 141 0.0 5.0 0.00 0.00 0.00 86 1013.1
20260508120156 61 170 0.0 3.0 0.00 0.00 0.00 86 1013.0
20260508115256 61 146 0.0 3.0 0.00 0.00 0.00 86 1013.0
20260508114356 61 133 0.0 3.0 0.00 0.00 0.00 86 1013.1
20260508113456 61 140 1.0 5.0 0.00 0.00 0.00 85 1013.4
20260508111656 62 143 1.0 3.0 0.00 0.00 0.00 82 1014.2
20260508110756 62 142 1.0 4.0 0.00 0.00 0.00 81 1014.2
20260508104956 62 142 0.0 2.0 0.00 0.00 0.00 80 1013.8
20260508104056 62 138 0.0 3.0 0.00 0.00 0.00 80 1013.7
20260508102256 62 146 0.0 3.0 0.00 0.00 0.00 81 1013.3
20260508101356 62 145 0.0 4.0 0.00 0.00 0.00 81 1013.2
20260508100456 62 126 0.0 2.0 0.00 0.00 0.00 81 1013.3
20260508095556 62 174 0.0 2.0 0.00 0.00 0.00 81 1013.3
20260508094656 62 131 0.0 4.0 0.00 0.00 0.00 81 1013.2
20260508092856 62 155 0.0 4.0 0.00 0.00 0.00 81 1013.3
20260508091956 62 127 0.0 2.0 0.00 0.00 0.00 82 1013.6
20260508091056 62 122 1.0 2.0 0.00 0.00 0.00 81 1013.5
20260508090156 61 127 1.0 2.0 0.00 0.00 0.00 82 1013.9
20260508085256 61 134 0.0 3.0 0.00 0.00 0.00 83 1013.4
20260508084356 61 106 0.0 1.0 0.00 0.00 0.00 83 1013.5
20260508083456 61 133 0.0 3.0 0.00 0.00 0.00 83 1013.4
20260508082556 62 0 0.0 0.0 0.00 0.00 0.00 82 1013.1
20260508081656 62 112 0.0 2.0 0.00 0.00 0.00 81 1013.8
20260508080756 62 123 0.0 2.0 0.00 0.00 0.00 78 1013.8
20260508075856 62 127 0.0 2.0 0.00 0.00 0.00 78 1013.9
20260508074956 62 136 0.0 1.0 0.00 0.00 0.00 79 1013.9
20260508074056 62 123 0.0 1.0 0.00 0.00 0.00 78 1013.9
20260508073156 63 146 0.0 1.0 0.00 0.00 0.00 78 1014.1
20260508072256 63 137 0.0 2.0 0.00 0.00 0.00 78 1014.2
20260508071356 63 100 0.0 1.0 0.00 0.00 0.00 78 1014.2
20260508065556 63 156 0.0 4.0 0.00 0.00 0.00 77 1013.7
20260508064656 62 139 0.0 2.0 0.00 0.00 0.00 78 1013.6
20260508063756 63 162 0.0 1.0 0.00 0.00 0.00 78 1013.6
20260508061956 63 120 0.0 2.0 0.00 0.00 0.00 78 1014.4
20260508061056 63 0 0.0 0.0 0.00 0.00 0.00 78 1014.6
20260508060156 62 118 0.0 1.0 0.00 0.00 0.00 79 1014.5
20260508055256 62 117 0.0 1.0 0.00 0.00 0.00 78 1014.9
20260508054356 62 128 0.0 2.0 0.00 0.00 0.00 78 1014.9
20260508052556 62 122 1.0 3.0 0.00 0.00 0.00 78 1015.1
20260508051656 62 126 1.0 4.0 0.00 0.00 0.00 79 1014.8
20260508050756 62 145 1.0 5.0 0.00 0.00 0.00 79 1014.3
20260508045856 62 144 0.0 7.0 0.00 0.00 0.00 79 1014.3
20260508044956 62 146 0.0 2.0 0.00 0.00 0.00 79 1014.1
20260508044056 62 192 0.0 1.0 0.00 0.00 0.00 78 1013.5
20260508041356 62 141 0.0 2.0 0.00 0.00 0.00 78 1014.0
20260508035556 62 127 0.0 2.0 0.00 0.00 0.00 78 1014.7
20260508034656 62 122 0.0 1.0 0.00 0.00 0.00 78 1014.7
20260508032856 63 132 0.0 2.0 0.00 0.00 0.00 78 1015.2
20260508031956 63 129 0.0 2.0 0.00 0.00 0.00 78 1015.5
20260508031056 63 120 0.0 1.0 0.00 0.00 0.00 77 1015.2
20260508030156 63 119 0.0 2.0 0.00 0.00 0.00 77 1015.3
20260508025256 63 114 0.0 2.0 0.00 0.00 0.00 76 1015.0
20260508024356 63 153 0.0 3.0 0.00 0.00 0.00 75 1014.5